"Period start","avg(HW err(1)/warn(2) (#))","avg(Visibility (m))","avg(Weather code (#))","avg(Precip intensity (mm/h))","min(HW err(1)/warn(2) (#))","max(HW err(1)/warn(2) (#))","std(HW err(1)/warn(2) (#))","med(HW err(1)/warn(2) (#))","min(Visibility (m))","max(Visibility (m))","std(Visibility (m))","med(Visibility (m))","min(Weather code (#))","max(Weather code (#))","std(Weather code (#))","med(Weather code (#))","min(Precip intensity (mm/h))","max(Precip intensity (mm/h))","std(Precip intensity (mm/h))","med(Precip intensity (mm/h))"
2017-07-28 00:00:00,0,50000,0,0.00,0,0,0,0,50000,50000,0,50000,0,0,0,0,0.00,0.00,0.00,0.00
2017-07-28 00:10:00,0,49567,0,0.00,0,0,0,0,47316,50000,897,50000,0,0,0,0,0.00,0.00,0.00,0.00
2017-07-28 00:20:00,0,46250,0,0.00,0,0,0,0,36866,50000,4330,47313,0,0,0,0,0.00,0.00,0.00,0.00
2017-07-28 00:30:00,0,23561,52,1.36,0,0,0,0,15311,33903,6494,22410,0,61,18,61,0.00,5.70,1.54,0.95
2017-07-28 00:40:00,1,15704,61,4.98,0,2,1,1,11373,23040,3973,14736,61,62,0,61,0.65,10.20,2.81,4.40
2017-07-28 00:50:00,2,11904,61,8.43,0,2,1,2,8821,17300,2831,11241,61,62,0,61,4.65,16.00,3.45,7.88
2017-07-28 01:00:00,2,13480,61,6.01,2,2,0,2,7296,22620,4130,13430,61,62,0,61,1.60,11.25,3.64,5.95
2017-07-28 01:10:00,2,29884,61,2.49,2,2,0,2,9273,50000,16771,33658,61,62,0,61,0.05,13.00,3.66,0.97
2017-07-28 01:20:00,2,25706,61,0.55,2,2,0,2,13532,42002,10715,22810,61,61,0,61,0.10,1.10,0.28,0.62
2017-07-28 01:30:00,2,34682,59,1.96,2,2,0,2,20446,50000,10343,35095,51,61,4,61,0.50,4.00,1.14,1.70
2017-07-28 01:40:00,2,26780,61,3.61,2,2,0,2,15968,42647,9576,23620,61,62,0,61,0.50,11.65,3.39,2.40
2017-07-28 01:50:00,2,42732,43,1.32,2,2,0,2,17680,50000,10175,49377,0,61,28,61,0.00,7.00,2.20,0.22
2017-07-28 02:00:00,2,44316,23,0.46,0,2,1,2,35050,50000,6099,46696,0,51,24,20,0.00,2.30,0.77,0.03
2017-07-28 02:10:00,2,41296,56,0.39,2,2,0,2,30086,50000,5208,40773,51,61,5,56,0.05,1.75,0.53,0.15
2017-07-28 02:20:00,2,49859,59,0.20,2,2,0,2,48594,50000,422,50000,51,61,4,61,0.00,0.60,0.22,0.08
2017-07-28 02:30:00,2,49960,39,0.05,0,2,1,2,49598,50000,121,50000,0,61,26,51,0.00,0.30,0.09,0.00
2017-07-28 02:40:00,2,50000,0,0.00,0,2,1,2,50000,50000,0,50000,0,0,0,0,0.00,0.00,0.00,0.00
2017-07-28 02:50:00,2,50000,0,0.00,0,2,1,2,50000,50000,0,50000,0,0,0,0,0.00,0.00,0.00,0.00
2017-07-28 03:00:00,2,49431,8,0.20,0,2,1,2,44310,50000,1707,50000,0,40,16,0,0.00,1.55,0.47,0.00
2017-07-28 03:10:00,2,40041,59,1.48,2,2,0,2,21185,50000,8739,40198,40,61,6,61,0.30,3.30,0.88,1.45
2017-07-28 03:20:00,2,48276,53,0.78,2,2,0,2,43317,50000,2400,49428,51,61,4,51,0.05,2.30,0.76,0.43
2017-07-28 03:30:00,2,36921,61,2.20,2,2,0,2,26004,50000,7636,36171,61,61,0,61,0.60,7.25,1.84,1.78
2017-07-28 03:40:00,2,42907,61,1.45,2,2,0,2,36331,50000,4682,42724,61,61,0,61,0.20,5.20,1.38,1.02
2017-07-28 03:50:00,2,45442,58,0.66,2,2,0,2,37073,50000,4448,45504,51,61,5,61,0.10,1.50,0.40,0.68
2017-07-28 04:00:00,2,47824,51,0.40,2,2,0,2,42880,50000,2470,48828,51,51,0,51,0.10,0.80,0.24,0.35
2017-07-28 04:10:00,2,47786,51,0.21,2,2,0,2,42389,50000,3005,50000,51,51,0,51,0.00,0.85,0.25,0.12
2017-07-28 04:20:00,2,49841,36,0.05,2,2,0,2,48951,50000,337,50000,0,51,23,51,0.00,0.30,0.09,0.00
2017-07-28 04:30:00,2,49560,0,0.00,2,2,0,2,46040,50000,1181,50000,0,0,0,0,0.00,0.00,0.00,0.00
2017-07-28 04:40:00,2,49636,43,0.07,2,2,0,2,46361,50000,1092,50000,0,61,23,51,0.00,0.15,0.05,0.08
2017-07-28 04:50:00,2,48730,49,0.13,2,2,0,2,43452,50000,2419,50000,41,51,4,51,0.00,0.30,0.08,0.12
2017-07-28 05:00:00,2,49869,30,0.04,2,2,0,2,48693,50000,392,50000,0,51,24,46,0.00,0.15,0.05,0.00
2017-07-28 05:10:00,2,49384,0,0.00,2,2,0,2,45316,50000,1377,50000,0,0,0,0,0.00,0.00,0.00,0.00
2017-07-28 05:20:00,2,49023,0,0.00,2,2,0,2,46241,50000,1190,49495,0,0,0,0,0.00,0.00,0.00,0.00
2017-07-28 05:30:00,2,49988,0,0.00,2,2,0,2,49882,50000,35,50000,0,0,0,0,0.00,0.00,0.00,0.00
2017-07-28 05:40:00,2,48210,0,0.00,2,2,0,2,41935,50000,2937,50000,0,0,0,0,0.00,0.00,0.00,0.00
2017-07-28 05:50:00,2,48446,0,0.00,2,2,0,2,44063,50000,2001,49669,0,0,0,0,0.00,0.00,0.00,0.00
2017-07-28 06:00:00,2,48586,0,0.00,2,2,0,2,40655,50000,2818,50000,0,0,0,0,0.00,0.00,0.00,0.00
2017-07-28 06:10:00,2,49348,0,0.00,2,2,0,2,46775,50000,1102,50000,0,0,0,0,0.00,0.00,0.00,0.00
2017-07-28 06:20:00,2,49709,0,0.00,2,2,0,2,48931,50000,446,50000,0,0,0,0,0.00,0.00,0.00,0.00
2017-07-28 06:30:00,2,49160,0,0.00,2,2,0,2,45105,50000,1519,50000,0,0,0,0,0.00,0.00,0.00,0.00
2017-07-28 06:40:00,2,48259,0,0.00,0,2,1,2,41265,50000,2683,49629,0,0,0,0,0.00,0.00,0.00,0.00
2017-07-28 06:50:00,2,47563,0,0.00,2,2,0,2,36436,50000,4063,49603,0,0,0,0,0.00,0.00,0.00,0.00
2017-07-28 07:00:00,1,49411,0,0.00,0,2,1,1,46887,50000,1034,50000,0,0,0,0,0.00,0.00,0.00,0.00
2017-07-28 07:10:00,0,48943,0,0.00,0,2,1,0,43502,50000,2007,50000,0,0,0,0,0.00,0.00,0.00,0.00
2017-07-28 07:20:00,1,48059,0,0.00,0,2,1,2,42668,50000,2719,50000,0,0,0,0,0.00,0.00,0.00,0.00
2017-07-28 07:30:00,0,49557,0,0.00,0,2,1,0,46371,50000,1089,50000,0,0,0,0,0.00,0.00,0.00,0.00
2017-07-28 07:40:00,0,49398,0,0.00,0,0,0,0,44123,50000,1759,50000,0,0,0,0,0.00,0.00,0.00,0.00
2017-07-28 07:50:00,1,49434,0,0.00,0,2,1,0,47254,50000,1080,50000,0,0,0,0,0.00,0.00,0.00,0.00
2017-07-28 08:00:00,1,49486,0,0.00,0,2,1,2,46930,50000,1051,50000,0,0,0,0,0.00,0.00,0.00,0.00
2017-07-28 08:10:00,2,45517,0,0.00,2,2,0,2,30410,50000,6600,49890,0,0,0,0,0.00,0.00,0.00,0.00
2017-07-28 08:20:00,2,49854,0,0.00,2,2,0,2,48542,50000,437,50000,0,0,0,0,0.00,0.00,0.00,0.00
2017-07-28 08:30:00,1,49501,0,0.00,0,2,1,2,47114,50000,1014,50000,0,0,0,0,0.00,0.00,0.00,0.00
2017-07-28 08:40:00,0,49685,0,0.00,0,0,0,0,46853,50000,944,50000,0,0,0,0,0.00,0.00,0.00,0.00
2017-07-28 08:50:00,0,49877,0,0.00,0,0,0,0,49224,50000,256,50000,0,0,0,0,0.00,0.00,0.00,0.00
2017-07-28 09:00:00,0,49487,0,0.00,0,0,0,0,47315,50000,1027,50000,0,0,0,0,0.00,0.00,0.00,0.00
2017-07-28 09:10:00,0,49718,0,0.00,0,0,0,0,47183,50000,845,50000,0,0,0,0,0.00,0.00,0.00,0.00
2017-07-28 09:20:00,0,50000,0,0.00,0,0,0,0,50000,50000,0,50000,0,0,0,0,0.00,0.00,0.00,0.00
2017-07-28 09:30:00,0,49884,0,0.00,0,0,0,0,48845,50000,346,50000,0,0,0,0,0.00,0.00,0.00,0.00
2017-07-28 09:40:00,0,49397,0,0.00,0,0,0,0,43969,50000,1809,50000,0,0,0,0,0.00,0.00,0.00,0.00
2017-07-28 09:50:00,0,45954,0,0.00,0,0,0,0,28877,50000,6378,48846,0,0,0,0,0.00,0.00,0.00,0.00
2017-07-28 10:00:00,0,48534,0,0.00,0,0,0,0,42079,50000,2464,49812,0,0,0,0,0.00,0.00,0.00,0.00
2017-07-28 10:10:00,0,49516,0,0.00,0,2,1,0,46793,50000,1002,50000,0,0,0,0,0.00,0.00,0.00,0.00
2017-07-28 10:20:00,0,49818,0,0.00,0,0,0,0,48184,50000,545,50000,0,0,0,0,0.00,0.00,0.00,0.00
2017-07-28 10:30:00,0,49615,0,0.00,0,0,0,0,46674,50000,993,50000,0,0,0,0,0.00,0.00,0.00,0.00
2017-07-28 10:40:00,0,49813,0,0.00,0,0,0,0,48966,50000,376,50000,0,0,0,0,0.00,0.00,0.00,0.00
2017-07-28 10:50:00,0,50000,0,0.00,0,2,1,0,50000,50000,0,50000,0,0,0,0,0.00,0.00,0.00,0.00
2017-07-28 11:00:00,2,49800,0,0.00,0,2,1,2,48254,50000,521,50000,0,0,0,0,0.00,0.00,0.00,0.00
2017-07-28 11:10:00,0,50000,0,0.00,0,0,0,0,50000,50000,0,50000,0,0,0,0,0.00,0.00,0.00,0.00
2017-07-28 11:20:00,0,50000,0,0.00,0,0,0,0,50000,50000,0,50000,0,0,0,0,0.00,0.00,0.00,0.00
2017-07-28 11:30:00,0,49793,0,0.00,0,0,0,0,47928,50000,622,50000,0,0,0,0,0.00,0.00,0.00,0.00
2017-07-28 11:40:00,0,50000,0,0.00,0,0,0,0,50000,50000,0,50000,0,0,0,0,0.00,0.00,0.00,0.00
2017-07-28 11:50:00,0,50000,0,0.00,0,0,0,0,50000,50000,0,50000,0,0,0,0,0.00,0.00,0.00,0.00
2017-07-28 12:00:00,0,50000,0,0.00,0,0,0,0,50000,50000,0,50000,0,0,0,0,0.00,0.00,0.00,0.00
2017-07-28 12:10:00,0,49778,0,0.00,0,0,0,0,47778,50000,667,50000,0,0,0,0,0.00,0.00,0.00,0.00
2017-07-28 12:20:00,0,50000,0,0.00,0,0,0,0,50000,50000,0,50000,0,0,0,0,0.00,0.00,0.00,0.00
2017-07-28 12:30:00,0,50000,0,0.00,0,0,0,0,50000,50000,0,50000,0,0,0,0,0.00,0.00,0.00,0.00
2017-07-28 12:40:00,0,49951,0,0.00,0,0,0,0,49506,50000,148,50000,0,0,0,0,0.00,0.00,0.00,0.00
2017-07-28 12:50:00,0,50000,0,0.00,0,0,0,0,50000,50000,0,50000,0,0,0,0,0.00,0.00,0.00,0.00
2017-07-28 13:00:00,0,50000,0,0.00,0,0,0,0,50000,50000,0,50000,0,0,0,0,0.00,0.00,0.00,0.00
2017-07-28 13:10:00,0,50000,0,0.00,0,0,0,0,50000,50000,0,50000,0,0,0,0,0.00,0.00,0.00,0.00
2017-07-28 13:20:00,0,50000,0,0.00,0,0,0,0,50000,50000,0,50000,0,0,0,0,0.00,0.00,0.00,0.00
2017-07-28 13:30:00,0,50000,0,0.00,0,0,0,0,50000,50000,0,50000,0,0,0,0,0.00,0.00,0.00,0.00
2017-07-28 13:40:00,0,49984,0,0.00,0,0,0,0,49836,50000,49,50000,0,0,0,0,0.00,0.00,0.00,0.00
2017-07-28 13:50:00,0,50000,0,0.00,0,0,0,0,50000,50000,0,50000,0,0,0,0,0.00,0.00,0.00,0.00
2017-07-28 14:00:00,0,50000,0,0.00,0,0,0,0,50000,50000,0,50000,0,0,0,0,0.00,0.00,0.00,0.00
2017-07-28 14:10:00,0,50000,0,0.00,0,0,0,0,50000,50000,0,50000,0,0,0,0,0.00,0.00,0.00,0.00
2017-07-28 14:20:00,0,50000,0,0.00,0,0,0,0,50000,50000,0,50000,0,0,0,0,0.00,0.00,0.00,0.00
2017-07-28 14:30:00,1,50000,0,0.00,0,2,1,0,50000,50000,0,50000,0,0,0,0,0.00,0.00,0.00,0.00
2017-07-28 14:40:00,2,50000,0,0.00,0,2,1,2,50000,50000,0,50000,0,0,0,0,0.00,0.00,0.00,0.00
2017-07-28 14:50:00,2,50000,0,0.00,0,2,1,2,50000,50000,0,50000,0,0,0,0,0.00,0.00,0.00,0.00
2017-07-28 15:00:00,1,50000,0,0.00,0,2,1,0,50000,50000,0,50000,0,0,0,0,0.00,0.00,0.00,0.00
2017-07-28 15:10:00,1,50000,0,0.00,0,2,1,1,50000,50000,0,50000,0,0,0,0,0.00,0.00,0.00,0.00
2017-07-28 15:20:00,2,50000,0,0.00,2,2,0,2,50000,50000,0,50000,0,0,0,0,0.00,0.00,0.00,0.00
2017-07-28 15:30:00,2,50000,0,0.00,2,2,0,2,50000,50000,0,50000,0,0,0,0,0.00,0.00,0.00,0.00
2017-07-28 15:40:00,2,50000,0,0.00,2,2,0,2,50000,50000,0,50000,0,0,0,0,0.00,0.00,0.00,0.00
2017-07-28 15:50:00,2,50000,0,0.00,0,2,1,2,50000,50000,0,50000,0,0,0,0,0.00,0.00,0.00,0.00
2017-07-28 16:00:00,1,50000,0,0.00,0,2,1,2,50000,50000,0,50000,0,0,0,0,0.00,0.00,0.00,0.00
2017-07-28 16:10:00,0,50000,0,0.00,0,0,0,0,50000,50000,0,50000,0,0,0,0,0.00,0.00,0.00,0.00
2017-07-28 16:20:00,0,50000,0,0.00,0,0,0,0,50000,50000,0,50000,0,0,0,0,0.00,0.00,0.00,0.00
2017-07-28 16:30:00,0,50000,0,0.00,0,0,0,0,50000,50000,0,50000,0,0,0,0,0.00,0.00,0.00,0.00
2017-07-28 16:40:00,0,50000,0,0.00,0,0,0,0,50000,50000,0,50000,0,0,0,0,0.00,0.00,0.00,0.00
2017-07-28 16:50:00,1,50000,0,0.00,0,2,1,0,50000,50000,0,50000,0,0,0,0,0.00,0.00,0.00,0.00
2017-07-28 17:00:00,2,41414,0,0.00,0,2,1,2,20799,50000,12658,50000,0,0,0,0,0.00,0.00,0.00,0.00
2017-07-28 17:10:00,2,32293,48,0.36,0,2,1,2,23103,43088,5834,30752,0,61,16,51,0.00,1.45,0.42,0.28
2017-07-28 17:20:00,2,25341,55,0.93,2,2,0,2,19545,31403,4104,26548,51,61,5,52,0.05,4.50,1.25,0.53
2017-07-28 17:30:00,2,32077,51,0.45,2,2,0,2,22342,45269,8052,34170,51,52,0,51,0.15,0.80,0.20,0.45
2017-07-28 17:40:00,2,24634,49,0.38,2,2,0,2,14903,42557,8714,20895,41,52,4,51,0.00,2.25,0.65,0.08
2017-07-28 17:50:00,2,14762,53,1.31,2,2,0,2,11620,18683,2120,14501,41,61,9,56,0.00,2.65,0.99,1.15
2017-07-28 18:00:00,2,14671,59,6.06,2,2,0,2,10746,18830,2587,14724,52,62,4,61,2.60,18.95,4.55,4.90
2017-07-28 18:10:00,2,21527,30,0.68,2,2,0,2,12350,39708,8382,18104,0,61,30,30,0.00,4.15,1.32,0.00
2017-07-28 18:20:00,2,41546,0,0.00,0,2,1,2,25528,50000,9679,46655,0,0,0,0,0.00,0.00,0.00,0.00
2017-07-28 18:30:00,2,49873,0,0.00,0,2,1,2,49056,50000,286,50000,0,0,0,0,0.00,0.00,0.00,0.00
2017-07-28 18:40:00,2,34620,12,0.03,2,2,0,2,21775,50000,9271,34569,0,61,24,0,0.00,0.25,0.08,0.00
2017-07-28 18:50:00,2,49979,33,0.04,0,2,1,2,49788,50000,64,50000,0,61,27,51,0.00,0.20,0.08,0.00
2017-07-28 19:00:00,1,47994,0,0.00,0,2,1,2,40959,50000,3209,50000,0,0,0,0,0.00,0.00,0.00,0.00
2017-07-28 19:10:00,0,50000,0,0.00,0,2,1,0,50000,50000,0,50000,0,0,0,0,0.00,0.00,0.00,0.00
2017-07-28 19:20:00,0,48394,0,0.00,0,0,0,0,40945,50000,2915,50000,0,0,0,0,0.00,0.00,0.00,0.00
2017-07-28 19:30:00,0,50000,0,0.00,0,0,0,0,50000,50000,0,50000,0,0,0,0,0.00,0.00,0.00,0.00
2017-07-28 19:40:00,0,50000,0,0.00,0,0,0,0,50000,50000,0,50000,0,0,0,0,0.00,0.00,0.00,0.00
2017-07-28 19:50:00,0,50000,0,0.00,0,0,0,0,50000,50000,0,50000,0,0,0,0,0.00,0.00,0.00,0.00
2017-07-28 20:00:00,0,50000,0,0.00,0,2,1,0,50000,50000,0,50000,0,0,0,0,0.00,0.00,0.00,0.00
2017-07-28 20:10:00,0,50000,0,0.00,0,0,0,0,50000,50000,0,50000,0,0,0,0,0.00,0.00,0.00,0.00
2017-07-28 20:20:00,0,50000,0,0.00,0,0,0,0,50000,50000,0,50000,0,0,0,0,0.00,0.00,0.00,0.00
2017-07-28 20:30:00,0,49935,0,0.00,0,0,0,0,49352,50000,194,50000,0,0,0,0,0.00,0.00,0.00,0.00
2017-07-28 20:40:00,0,50000,0,0.00,0,2,1,0,50000,50000,0,50000,0,0,0,0,0.00,0.00,0.00,0.00
2017-07-28 20:50:00,1,49855,0,0.00,0,2,1,2,49076,50000,303,50000,0,0,0,0,0.00,0.00,0.00,0.00
2017-07-28 21:00:00,1,49998,0,0.00,0,2,1,2,49978,50000,7,50000,0,0,0,0,0.00,0.00,0.00,0.00
2017-07-28 21:10:00,0,49479,0,0.00,0,0,0,0,46685,50000,1089,50000,0,0,0,0,0.00,0.00,0.00,0.00
2017-07-28 21:20:00,0,49877,0,0.00,0,0,0,0,49185,50000,262,50000,0,0,0,0,0.00,0.00,0.00,0.00
2017-07-28 21:30:00,0,49821,0,0.00,0,0,0,0,48208,50000,538,50000,0,0,0,0,0.00,0.00,0.00,0.00
2017-07-28 21:40:00,0,50000,0,0.00,0,0,0,0,50000,50000,0,50000,0,0,0,0,0.00,0.00,0.00,0.00
2017-07-28 21:50:00,0,49559,0,0.00,0,0,0,0,47721,50000,883,50000,0,0,0,0,0.00,0.00,0.00,0.00
2017-07-28 22:00:00,0,49699,0,0.00,0,0,0,0,48192,50000,617,50000,0,0,0,0,0.00,0.00,0.00,0.00
2017-07-28 22:10:00,0,49864,0,0.00,0,0,0,0,48635,50000,410,50000,0,0,0,0,0.00,0.00,0.00,0.00
2017-07-28 22:20:00,0,50000,0,0.00,0,0,0,0,50000,50000,0,50000,0,0,0,0,0.00,0.00,0.00,0.00
2017-07-28 22:30:00,0,49908,0,0.00,0,0,0,0,49355,50000,201,50000,0,0,0,0,0.00,0.00,0.00,0.00
2017-07-28 22:40:00,0,49965,0,0.00,0,0,0,0,49654,50000,104,50000,0,0,0,0,0.00,0.00,0.00,0.00
2017-07-28 22:50:00,0,49358,0,0.00,0,0,0,0,47383,50000,1007,50000,0,0,0,0,0.00,0.00,0.00,0.00
2017-07-28 23:00:00,0,50000,0,0.00,0,0,0,0,50000,50000,0,50000,0,0,0,0,0.00,0.00,0.00,0.00
2017-07-28 23:10:00,0,49897,0,0.00,0,0,0,0,48971,50000,309,50000,0,0,0,0,0.00,0.00,0.00,0.00
2017-07-28 23:20:00,0,49974,0,0.00,0,0,0,0,49742,50000,77,50000,0,0,0,0,0.00,0.00,0.00,0.00
2017-07-28 23:30:00,0,49896,0,0.00,0,2,1,0,48956,50000,313,50000,0,0,0,0,0.00,0.00,0.00,0.00
2017-07-28 23:40:00,0,48581,0,0.00,0,2,1,0,43391,50000,2230,49941,0,0,0,0,0.00,0.00,0.00,0.00
2017-07-28 23:50:00,0,50000,0,0.00,0,2,1,0,50000,50000,0,50000,0,0,0,0,0.00,0.00,0.00,0.00
